| time (UTC) | temp C | wind direction | speed KPH | gust KPH | rain 1hr cm | rain 24hr cm | rain mn cm | humidity % | barometer mb |
| 20260506165507 | 3 | 255 | 11.3 | 32.2 | 0.00 | 0.00 | 0.00 | 55 | 1017.6 |
| 20260506165005 | 3 | 262 | 16.1 | 32.2 | 0.00 | 0.00 | 0.00 | 56 | 1017.6 |
| 20260506164503 | 3 | 281 | 14.5 | 32.2 | 0.00 | 0.00 | 0.00 | 55 | 1017.6 |
| 20260506164003 | 4 | 268 | 17.7 | 32.2 | 0.00 | 0.00 | 0.00 | 56 | 1017.7 |
| 20260506163504 | 3 | 306 | 11.3 | 25.7 | 0.00 | 0.00 | 0.00 | 57 | 1017.7 |
| 20260506163017 | 3 | 254 | 12.9 | 25.7 | 0.00 | 0.00 | 0.00 | 56 | 1017.6 |
| 20260506162505 | 3 | 286 | 17.7 | 24.1 | 0.00 | 0.00 | 0.00 | 56 | 1017.6 |
| 20260506162007 | 3 | 323 | 8.0 | 27.4 | 0.00 | 0.00 | 0.00 | 56 | 1017.6 |
| 20260506161508 | 3 | 267 | 16.1 | 27.4 | 0.00 | 0.00 | 0.00 | 54 | 1017.6 |
| 20260506161004 | 3 | 244 | 17.7 | 24.1 | 0.00 | 0.00 | 0.00 | 55 | 1017.5 |
| 20260506160506 | 3 | 295 | 11.3 | 22.5 | 0.00 | 0.00 | 0.00 | 55 | 1017.5 |
| 20260506160007 | 3 | 178 | 9.7 | 20.9 | 0.00 | 0.00 | 0.00 | 56 | 1017.5 |
| 20260506155502 | 3 | 284 | 9.7 | 19.3 | 0.00 | 0.00 | 0.00 | 56 | 1017.5 |
| 20260506155002 | 3 | 340 | 8.0 | 16.1 | 0.00 | 0.00 | 0.00 | 57 | 1017.5 |
| 20260506154509 | 3 | 232 | 8.0 | 19.3 | 0.00 | 0.00 | 0.00 | 57 | 1017.5 |
| 20260506154003 | 3 | 298 | 6.4 | 19.3 | 0.00 | 0.00 | 0.00 | 58 | 1017.5 |
| 20260506153503 | 3 | 315 | 8.0 | 19.3 | 0.00 | 0.00 | 0.00 | 56 | 1017.4 |
| 20260506153011 | 3 | 316 | 8.0 | 24.1 | 0.00 | 0.00 | 0.00 | 56 | 1017.5 |
| 20260506152503 | 3 | 241 | 9.7 | 24.1 | 0.00 | 0.00 | 0.00 | 57 | 1017.4 |
| 20260506152006 | 3 | 262 | 9.7 | 20.9 | 0.00 | 0.00 | 0.00 | 57 | 1017.4 |
| 20260506151517 | 3 | 33 | 9.7 | 19.3 | 0.00 | 0.00 | 0.00 | 57 | 1017.5 |
| 20260506151003 | 3 | 205 | 11.3 | 24.1 | 0.00 | 0.00 | 0.00 | 59 | 1017.4 |
| 20260506150504 | 3 | 297 | 12.9 | 24.1 | 0.00 | 0.00 | 0.00 | 57 | 1017.4 |
| 20260506150014 | 3 | 286 | 12.9 | 22.5 | 0.00 | 0.00 | 0.00 | 58 | 1017.3 |
| 20260506145505 | 3 | 295 | 4.8 | 22.5 | 0.00 | 0.00 | 0.00 | 58 | 1017.3 |
| 20260506145005 | 3 | 259 | 14.5 | 22.5 | 0.00 | 0.00 | 0.00 | 58 | 1017.4 |
| 20260506144506 | 3 | 242 | 11.3 | 19.3 | 0.00 | 0.00 | 0.00 | 59 | 1017.4 |
| 20260506144004 | 3 | 273 | 11.3 | 19.3 | 0.00 | 0.00 | 0.00 | 59 | 1017.4 |
| 20260506143507 | 2 | 309 | 3.2 | 19.3 | 0.00 | 0.00 | 0.00 | 59 | 1017.3 |
| 20260506143011 | 2 | 303 | 9.7 | 19.3 | 0.00 | 0.00 | 0.00 | 60 | 1017.3 |
| 20260506142506 | 2 | 28 | 6.4 | 22.5 | 0.00 | 0.00 | 0.00 | 61 | 1017.3 |
| 20260506142006 | 2 | 221 | 9.7 | 22.5 | 0.00 | 0.00 | 0.00 | 58 | 1017.3 |
| 20260506141508 | 2 | 255 | 9.7 | 20.9 | 0.00 | 0.00 | 0.00 | 61 | 1017.3 |
| 20260506141007 | 2 | 237 | 11.3 | 20.9 | 0.00 | 0.00 | 0.00 | 61 | 1017.3 |
| 20260506140504 | 2 | 277 | 9.7 | 16.1 | 0.00 | 0.00 | 0.00 | 61 | 1017.3 |
| 20260506140029 | 2 | 284 | 4.8 | 17.7 | 0.00 | 0.00 | 0.00 | 62 | 1017.3 |
| 20260506135503 | 2 | 304 | 9.7 | 19.3 | 0.00 | 0.00 | 0.00 | 61 | 1017.3 |
| 20260506135002 | 2 | 321 | 8.0 | 19.3 | 0.00 | 0.00 | 0.00 | 62 | 1017.2 |
| 20260506134506 | 2 | 321 | 8.0 | 17.7 | 0.00 | 0.00 | 0.00 | 63 | 1017.2 |
| 20260506134005 | 2 | 271 | 6.4 | 20.9 | 0.00 | 0.00 | 0.00 | 62 | 1017.1 |
| 20260506133503 | 2 | 286 | 9.7 | 20.9 | 0.00 | 0.00 | 0.00 | 64 | 1017.1 |
| 20260506133013 | 2 | 291 | 6.4 | 17.7 | 0.00 | 0.00 | 0.00 | 67 | 1017.1 |
| 20260506132508 | 2 | 240 | 4.8 | 16.1 | 0.00 | 0.00 | 0.00 | 69 | 1017.1 |
| 20260506132003 | 2 | 241 | 8.0 | 16.1 | 0.00 | 0.00 | 0.00 | 70 | 1017.0 |
| 20260506131519 | 2 | 254 | 6.4 | 16.1 | 0.00 | 0.00 | 0.00 | 70 | 1016.9 |
| 20260506131010 | 2 | 248 | 9.7 | 16.1 | 0.00 | 0.00 | 0.00 | 70 | 1016.9 |
| 20260506130505 | 1 | 265 | 9.7 | 14.5 | 0.00 | 0.00 | 0.00 | 71 | 1016.7 |
| 20260506130012 | 1 | 281 | 6.4 | 14.5 | 0.00 | 0.00 | 0.00 | 71 | 1016.7 |
| 20260506125503 | 1 | 257 | 6.4 | 12.9 | 0.00 | 0.00 | 0.00 | 72 | 1016.7 |
| 20260506125004 | 1 | 205 | 6.4 | 12.9 | 0.00 | 0.00 | 0.00 | 72 | 1016.6 |
| 20260506124509 | 1 | 225 | 6.4 | 12.9 | 0.00 | 0.00 | 0.00 | 72 | 1016.5 |
| 20260506124006 | 1 | 261 | 6.4 | 11.3 | 0.00 | 0.00 | 0.00 | 73 | 1016.5 |
| 20260506123505 | 1 | 252 | 4.8 | 11.3 | 0.00 | 0.00 | 0.00 | 73 | 1016.3 |
| 20260506123016 | 1 | 268 | 6.4 | 11.3 | 0.00 | 0.00 | 0.00 | 74 | 1016.4 |
| 20260506122503 | 1 | 249 | 4.8 | 11.3 | 0.00 | 0.00 | 0.00 | 74 | 1016.3 |
| 20260506122007 | 1 | 250 | 4.8 | 11.3 | 0.00 | 0.00 | 0.00 | 75 | 1016.2 |
| 20260506121519 | 0 | 287 | 3.2 | 6.4 | 0.00 | 0.00 | 0.00 | 75 | 1016.1 |
| 20260506121003 | 0 | 238 | 3.2 | 8.0 | 0.00 | 0.00 | 0.00 | 76 | 1016.0 |
| 20260506120504 | 0 | 265 | 3.2 | 8.0 | 0.00 | 0.00 | 0.00 | 76 | 1015.9 |
| 20260506120020 | 0 | 287 | 1.6 | 6.4 | 0.00 | 0.00 | 0.00 | 76 | 1015.9 |
| 20260506115503 | 0 | 275 | 3.2 | 11.3 | 0.00 | 0.00 | 0.00 | 76 | 1016.0 |
| 20260506115003 | 0 | 298 | 4.8 | 11.3 | 0.00 | 0.00 | 0.00 | 77 | 1015.8 |
| 20260506114508 | 0 | 321 | 4.8 | 11.3 | 0.00 | 0.00 | 0.00 | 77 | 1015.7 |
| 20260506114005 | 0 | 295 | 3.2 | 11.3 | 0.00 | 0.00 | 0.00 | 77 | 1015.5 |
| 20260506113503 | -1 | 288 | 3.2 | 12.9 | 0.00 | 0.00 | 0.00 | 77 | 1015.4 |
| 20260506113014 | -1 | 309 | 6.4 | 12.9 | 0.00 | 0.00 | 0.00 | 77 | 1015.4 |
| 20260506112504 | -1 | 275 | 4.8 | 9.7 | 0.00 | 0.00 | 0.00 | 77 | 1015.4 |
| 20260506112006 | -1 | 272 | 3.2 | 11.3 | 0.00 | 0.00 | 0.00 | 77 | 1015.3 |
| 20260506111515 | -1 | 317 | 4.8 | 11.3 | 0.00 | 0.00 | 0.00 | 77 | 1015.3 |
| 20260506111006 | -1 | 309 | 3.2 | 6.4 | 0.00 | 0.00 | 0.00 | 77 | 1015.3 |
| 20260506110507 | 0 | 296 | 3.2 | 6.4 | 0.00 | 0.00 | 0.00 | 77 | 1015.2 |
| 20260506110026 | -1 | 315 | 3.2 | 6.4 | 0.00 | 0.00 | 0.00 | 77 | 1015.3 |
| 20260506105503 | -1 | 284 | 3.2 | 6.4 | 0.00 | 0.00 | 0.00 | 77 | 1015.5 |
| 20260506105006 | -1 | 273 | 3.2 | 9.7 | 0.00 | 0.00 | 0.00 | 77 | 1015.5 |
| 20260506104512 | -1 | 255 | 4.8 | 11.3 | 0.00 | 0.00 | 0.00 | 77 | 1015.6 |
| 20260506104005 | -1 | 242 | 3.2 | 11.3 | 0.00 | 0.00 | 0.00 | 77 | 1015.6 |
| 20260506103507 | -1 | 255 | 6.4 | 11.3 | 0.00 | 0.00 | 0.00 | 77 | 1015.6 |
| 20260506103019 | -1 | 269 | 4.8 | 12.9 | 0.00 | 0.00 | 0.00 | 77 | 1015.6 |
| 20260506102507 | -1 | 279 | 6.4 | 12.9 | 0.00 | 0.00 | 0.00 | 76 | 1015.7 |
| 20260506102006 | -1 | 269 | 8.0 | 12.9 | 0.00 | 0.00 | 0.00 | 76 | 1015.5 |
| 20260506101521 | -1 | 248 | 6.4 | 11.3 | 0.00 | 0.00 | 0.00 | 76 | 1015.4 |
| 20260506101006 | -1 | 257 | 4.8 | 11.3 | 0.00 | 0.00 | 0.00 | 75 | 1015.3 |
| 20260506100503 | -1 | 289 | 4.8 | 11.3 | 0.00 | 0.00 | 0.00 | 75 | 1015.2 |
| 20260506100018 | -1 | 254 | 3.2 | 9.7 | 0.00 | 0.00 | 0.00 | 75 | 1015.2 |
| 20260506095503 | -1 | 273 | 4.8 | 12.9 | 0.00 | 0.00 | 0.00 | 75 | 1015.1 |
| 20260506095004 | -1 | 248 | 4.8 | 12.9 | 0.00 | 0.00 | 0.00 | 75 | 1015.1 |
| 20260506094517 | -1 | 272 | 4.8 | 11.3 | 0.00 | 0.00 | 0.00 | 74 | 1015.2 |
| 20260506094008 | 0 | 254 | 4.8 | 11.3 | 0.00 | 0.00 | 0.00 | 74 | 1015.1 |
| 20260506093507 | 0 | 249 | 4.8 | 11.3 | 0.00 | 0.00 | 0.00 | 73 | 1015.3 |
| 20260506093021 | 0 | 255 | 4.8 | 11.3 | 0.00 | 0.00 | 0.00 | 73 | 1015.2 |
| 20260506092504 | 0 | 287 | 3.2 | 11.3 | 0.00 | 0.00 | 0.00 | 73 | 1015.0 |
| 20260506092007 | 0 | 277 | 3.2 | 11.3 | 0.00 | 0.00 | 0.00 | 73 | 1015.0 |
| 20260506091526 | 0 | 242 | 3.2 | 12.9 | 0.00 | 0.00 | 0.00 | 72 | 1015.0 |
| 20260506091007 | 0 | 275 | 6.4 | 12.9 | 0.00 | 0.00 | 0.00 | 73 | 1015.1 |
| 20260506090506 | 0 | 275 | 6.4 | 11.3 | 0.00 | 0.00 | 0.00 | 73 | 1015.2 |
| 20260506090025 | 0 | 261 | 6.4 | 12.9 | 0.00 | 0.00 | 0.00 | 73 | 1015.2 |
| 20260506085503 | 0 | 272 | 6.4 | 12.9 | 0.00 | 0.00 | 0.00 | 73 | 1015.2 |
| 20260506085003 | 0 | 248 | 6.4 | 12.9 | 0.00 | 0.00 | 0.00 | 73 | 1015.0 |
| 20260506084517 | 0 | 257 | 4.8 | 12.9 | 0.00 | 0.00 | 0.00 | 72 | 1014.9 |
| 20260506084007 | 0 | 275 | 4.8 | 11.3 | 0.00 | 0.00 | 0.00 | 71 | 1014.8 |
| 20260506083506 | 0 | 287 | 3.2 | 8.0 | 0.00 | 0.00 | 0.00 | 70 | 1014.7 |
| 20260506083027 | 0 | 265 | 1.6 | 6.4 | 0.00 | 0.00 | 0.00 | 69 | 1014.6 |
| 20260506082509 | 0 | 273 | 1.6 | 6.4 | 0.00 | 0.00 | 0.00 | 68 | 1014.7 |
| 20260506082006 | 0 | 282 | 1.6 | 4.8 | 0.00 | 0.00 | 0.00 | 67 | 1014.7 |
| 20260506081514 | 0 | 287 | 1.6 | 4.8 | 0.00 | 0.00 | 0.00 | 67 | 1014.7 |
| 20260506081012 | 0 | 309 | 1.6 | 4.8 | 0.00 | 0.00 | 0.00 | 66 | 1014.8 |
| 20260506080509 | 0 | 293 | 1.6 | 6.4 | 0.00 | 0.00 | 0.00 | 65 | 1014.9 |
| 20260506073509 | 1 | 295 | 1.6 | 4.8 | 0.00 | 0.00 | 0.00 | 64 | 1014.8 |
| 20260506073023 | 1 | 298 | 1.6 | 6.4 | 0.00 | 0.00 | 0.00 | 64 | 1014.7 |
| 20260506072510 | 1 | 304 | 1.6 | 11.3 | 0.00 | 0.00 | 0.00 | 64 | 1014.7 |
| 20260506072008 | 1 | 287 | 4.8 | 12.9 | 0.00 | 0.00 | 0.00 | 63 | 1014.6 |
| 20260506071523 | 1 | 312 | 3.2 | 12.9 | 0.00 | 0.00 | 0.00 | 63 | 1014.5 |
| 20260506071009 | 1 | 336 | 3.2 | 16.1 | 0.00 | 0.00 | 0.00 | 63 | 1014.5 |
| 20260506070504 | 1 | 316 | 8.0 | 16.1 | 0.00 | 0.00 | 0.00 | 63 | 1014.5 |
| 20260506062513 | 1 | 57 | 3.2 | 14.5 | 0.00 | 0.00 | 0.00 | 62 | 1014.5 |
| 20260506062009 | 1 | 337 | 4.8 | 20.9 | 0.00 | 0.00 | 0.00 | 61 | 1014.4 |
| 20260506061528 | 1 | 325 | 4.8 | 20.9 | 0.00 | 0.00 | 0.00 | 61 | 1014.4 |
| 20260506061007 | 1 | 329 | 8.0 | 16.1 | 0.00 | 0.00 | 0.00 | 62 | 1014.5 |
| 20260506060509 | 1 | 309 | 3.2 | 8.0 | 0.00 | 0.00 | 0.00 | 62 | 1014.5 |
| 20260506051009 | 2 | 234 | 3.2 | 9.7 | 0.00 | 0.00 | 0.00 | 58 | 1014.1 |
| 20260506050510 | 2 | 323 | 3.2 | 14.5 | 0.00 | 0.00 | 0.00 | 57 | 1013.9 |
| 20260506045007 | 3 | 291 | 3.2 | 11.3 | 0.00 | 0.00 | 0.00 | 56 | 1013.8 |
| 20260506044520 | 3 | 294 | 4.8 | 12.9 | 0.00 | 0.00 | 0.00 | 56 | 1013.8 |
| 20260506044006 | 3 | 286 | 4.8 | 14.5 | 0.00 | 0.00 | 0.00 | 56 | 1013.7 |
| 20260506043507 | 3 | 293 | 4.8 | 14.5 | 0.00 | 0.00 | 0.00 | 55 | 1013.8 |
| 20260506043027 | 3 | 296 | 4.8 | 16.1 | 0.00 | 0.00 | 0.00 | 56 | 1013.8 |
| 20260506042509 | 3 | 319 | 6.4 | 16.1 | 0.00 | 0.00 | 0.00 | 55 | 1013.7 |
| 20260506042010 | 3 | 323 | 6.4 | 14.5 | 0.00 | 0.00 | 0.00 | 55 | 1013.7 |
| 20260506041536 | 3 | 315 | 9.7 | 16.1 | 0.00 | 0.00 | 0.00 | 55 | 1013.8 |
| 20260506041008 | 3 | 306 | 6.4 | 19.3 | 0.00 | 0.00 | 0.00 | 55 | 1013.7 |
| 20260506040507 | 4 | 291 | 6.4 | 24.1 | 0.00 | 0.00 | 0.00 | 55 | 1013.7 |
| 20260506040029 | 4 | 316 | 8.0 | 24.1 | 0.00 | 0.00 | 0.00 | 55 | 1013.7 |
| 20260506035514 | 4 | 298 | 6.4 | 19.3 | 0.00 | 0.00 | 0.00 | 54 | 1013.7 |
| 20260506035009 | 4 | 288 | 8.0 | 17.7 | 0.00 | 0.00 | 0.00 | 54 | 1013.8 |
| 20260506034532 | 4 | 317 | 8.0 | 19.3 | 0.00 | 0.00 | 0.00 | 54 | 1013.6 |
| 20260506034013 | 4 | 321 | 8.0 | 20.9 | 0.00 | 0.00 | 0.00 | 54 | 1013.6 |
| 20260506033511 | 5 | 282 | 11.3 | 20.9 | 0.00 | 0.00 | 0.00 | 53 | 1013.5 |
| 20260506033025 | 5 | 298 | 9.7 | 19.3 | 0.00 | 0.00 | 0.00 | 53 | 1013.6 |
| 20260506032510 | 5 | 292 | 9.7 | 19.3 | 0.00 | 0.00 | 0.00 | 53 | 1013.6 |
| 20260506032011 | 5 | 297 | 11.3 | 20.9 | 0.00 | 0.00 | 0.00 | 53 | 1013.5 |
| 20260506031529 | 5 | 265 | 9.7 | 20.9 | 0.00 | 0.00 | 0.00 | 52 | 1013.6 |
| 20260506031009 | 5 | 292 | 9.7 | 22.5 | 0.00 | 0.00 | 0.00 | 52 | 1013.5 |
| 20260506030514 | 5 | 187 | 9.7 | 22.5 | 0.00 | 0.00 | 0.00 | 52 | 1013.5 |
| 20260506030029 | 5 | 317 | 9.7 | 20.9 | 0.00 | 0.00 | 0.00 | 51 | 1013.5 |
| 20260506025514 | 5 | 282 | 8.0 | 19.3 | 0.00 | 0.00 | 0.00 | 51 | 1013.5 |
| 20260506025007 | 5 | 286 | 9.7 | 19.3 | 0.00 | 0.00 | 0.00 | 50 | 1013.4 |
| 20260506024525 | 5 | 332 | 8.0 | 25.7 | 0.00 | 0.00 | 0.00 | 50 | 1013.3 |
| 20260506024008 | 5 | 273 | 12.9 | 25.7 | 0.00 | 0.00 | 0.00 | 49 | 1013.1 |
| 20260506023507 | 5 | 311 | 6.4 | 17.7 | 0.00 | 0.00 | 0.00 | 48 | 1013.0 |
| 20260506023026 | 5 | 284 | 8.0 | 17.7 | 0.00 | 0.00 | 0.00 | 48 | 1012.9 |
| 20260506022510 | 6 | 281 | 9.7 | 19.3 | 0.00 | 0.00 | 0.00 | 48 | 1012.9 |
| 20260506022012 | 6 | 310 | 6.4 | 22.5 | 0.00 | 0.00 | 0.00 | 47 | 1012.9 |
| 20260506021524 | 6 | 323 | 11.3 | 22.5 | 0.00 | 0.00 | 0.00 | 47 | 1012.8 |
| 20260506021010 | 6 | 292 | 8.0 | 25.7 | 0.00 | 0.00 | 0.00 | 46 | 1012.7 |
| 20260506020506 | 6 | 300 | 16.1 | 25.7 | 0.00 | 0.00 | 0.00 | 45 | 1012.6 |
| 20260506020021 | 6 | 321 | 14.5 | 25.7 | 0.00 | 0.00 | 0.00 | 45 | 1012.5 |
| 20260506015503 | 6 | 275 | 8.0 | 25.7 | 0.00 | 0.00 | 0.00 | 45 | 1012.5 |
| 20260506015005 | 6 | 303 | 16.1 | 25.7 | 0.00 | 0.00 | 0.00 | 45 | 1012.3 |
| 20260506014515 | 6 | 325 | 12.9 | 25.7 | 0.00 | 0.00 | 0.00 | 45 | 1012.3 |
| 20260506014006 | 6 | 312 | 8.0 | 22.5 | 0.00 | 0.00 | 0.00 | 46 | 1012.3 |
| 20260506013504 | 6 | 292 | 8.0 | 22.5 | 0.00 | 0.00 | 0.00 | 45 | 1012.3 |
| 20260506013021 | 7 | 265 | 9.7 | 20.9 | 0.00 | 0.00 | 0.00 | 44 | 1012.2 |
| 20260506012503 | 7 | 308 | 9.7 | 22.5 | 0.00 | 0.00 | 0.00 | 45 | 1012.2 |
| 20260506012007 | 7 | 317 | 12.9 | 29.0 | 0.00 | 0.00 | 0.00 | 44 | 1012.1 |
| 20260506011521 | 7 | 303 | 8.0 | 29.0 | 0.00 | 0.00 | 0.00 | 45 | 1012.0 |
| 20260506011008 | 7 | 310 | 9.7 | 29.0 | 0.00 | 0.00 | 0.00 | 43 | 1011.9 |
| 20260506010507 | 7 | 300 | 12.9 | 29.0 | 0.00 | 0.00 | 0.00 | 43 | 1011.9 |
| 20260506010008 | 7 | 296 | 8.0 | 24.1 | 0.00 | 0.00 | 0.00 | 43 | 1011.8 |
| 20260506005507 | 7 | 307 | 11.3 | 20.9 | 0.00 | 0.00 | 0.00 | 43 | 1011.7 |
| 20260506005008 | 7 | 307 | 4.8 | 19.3 | 0.00 | 0.00 | 0.00 | 44 | 1011.6 |
| 20260506004526 | 7 | 296 | 8.0 | 19.3 | 0.00 | 0.00 | 0.00 | 44 | 1011.6 |
| 20260506004003 | 7 | 284 | 9.7 | 24.1 | 0.00 | 0.00 | 0.00 | 44 | 1011.7 |
| 20260506003504 | 7 | 315 | 8.0 | 24.1 | 0.00 | 0.00 | 0.00 | 44 | 1011.7 |
| 20260506003011 | 7 | 297 | 6.4 | 22.5 | 0.00 | 0.00 | 0.00 | 45 | 1011.6 |
| 20260506002504 | 7 | 268 | 12.9 | 22.5 | 0.00 | 0.00 | 0.00 | 44 | 1011.6 |
| 20260506002007 | 7 | 16 | 6.4 | 20.9 | 0.00 | 0.00 | 0.00 | 44 | 1011.6 |
| 20260506001514 | 7 | 259 | 11.3 | 24.1 | 0.00 | 0.00 | 0.00 | 43 | 1011.4 |
| 20260506001007 | 7 | 307 | 9.7 | 32.2 | 0.00 | 0.00 | 0.00 | 43 | 1011.4 |
| 20260506000504 | 8 | 257 | 14.5 | 32.2 | 0.00 | 0.00 | 0.00 | 42 | 1011.3 |
| 20260506000015 | 8 | 300 | 14.5 | 25.7 | 0.00 | 0.00 | 0.00 | 43 | 1011.3 |
| 20260505235507 | 8 | 218 | 11.3 | 20.9 | 0.00 | 0.00 | 0.00 | 42 | 1011.3 |
| 20260505235010 | 8 | 265 | 8.0 | 25.7 | 0.00 | 0.00 | 0.00 | 42 | 1011.3 |
| 20260505234512 | 8 | 265 | 14.5 | 25.7 | 0.00 | 0.00 | 0.00 | 42 | 1011.2 |
| 20260505234007 | 8 | 309 | 14.5 | 24.1 | 0.00 | 0.00 | 0.00 | 41 | 1011.1 |
| 20260505233503 | 8 | 221 | 14.5 | 24.1 | 0.00 | 0.00 | 0.00 | 42 | 1011.2 |
| 20260505233021 | 8 | 292 | 11.3 | 32.2 | 0.00 | 0.00 | 0.00 | 41 | 1011.1 |
| 20260505232506 | 8 | 309 | 14.5 | 32.2 | 0.00 | 0.00 | 0.00 | 40 | 1011.1 |
| 20260505232010 | 8 | 275 | 8.0 | 24.1 | 0.00 | 0.00 | 0.00 | 42 | 1011.1 |
| 20260505231519 | 8 | 313 | 16.1 | 25.7 | 0.00 | 0.00 | 0.00 | 41 | 1011.1 |
| 20260505231008 | 8 | 51 | 11.3 | 25.7 | 0.00 | 0.00 | 0.00 | 40 | 1011.1 |
| 20260505230509 | 8 | 286 | 12.9 | 25.7 | 0.00 | 0.00 | 0.00 | 42 | 1011.2 |
| 20260505230005 | 8 | 292 | 12.9 | 27.4 | 0.00 | 0.00 | 0.00 | 41 | 1011.3 |
| 20260505225504 | 8 | 252 | 14.5 | 30.6 | 0.00 | 0.00 | 0.00 | 40 | 1011.3 |
| 20260505225004 | 9 | 308 | 20.9 | 30.6 | 0.00 | 0.00 | 0.00 | 40 | 1011.2 |
| 20260505224512 | 9 | 294 | 14.5 | 30.6 | 0.00 | 0.00 | 0.00 | 40 | 1011.2 |
| 20260505224003 | 10 | 298 | 17.7 | 33.8 | 0.00 | 0.00 | 0.00 | 38 | 1011.1 |
| 20260505223506 | 10 | 282 | 17.7 | 33.8 | 0.00 | 0.00 | 0.00 | 39 | 1011.0 |
| 20260505223013 | 9 | 284 | 11.3 | 29.0 | 0.00 | 0.00 | 0.00 | 41 | 1011.1 |
| 20260505222505 | 9 | 235 | 14.5 | 29.0 | 0.00 | 0.00 | 0.00 | 40 | 1011.0 |
| 20260505222003 | 9 | 303 | 16.1 | 32.2 | 0.00 | 0.00 | 0.00 | 41 | 1011.0 |
| 20260505221516 | 10 | 289 | 16.1 | 32.2 | 0.00 | 0.00 | 0.00 | 39 | 1011.0 |
| 20260505221013 | 10 | 221 | 14.5 | 30.6 | 0.00 | 0.00 | 0.00 | 40 | 1011.0 |
| 20260505220502 | 10 | 255 | 17.7 | 30.6 | 0.00 | 0.00 | 0.00 | 39 | 1010.9 |
| 20260505220018 | 10 | 250 | 14.5 | 30.6 | 0.00 | 0.00 | 0.00 | 41 | 1010.9 |
| 20260505215503 | 10 | 309 | 16.1 | 37.0 | 0.00 | 0.00 | 0.00 | 40 | 1010.9 |
| 20260505215003 | 10 | 249 | 16.1 | 37.0 | 0.00 | 0.00 | 0.00 | 39 | 1011.0 |
| 20260505214507 | 10 | 313 | 14.5 | 29.0 | 0.00 | 0.00 | 0.00 | 41 | 1011.0 |
| 20260505214002 | 10 | 338 | 16.1 | 25.7 | 0.00 | 0.00 | 0.00 | 39 | 1011.0 |
| 20260505213503 | 10 | 334 | 12.9 | 30.6 | 0.00 | 0.00 | 0.00 | 39 | 1011.2 |
| 20260505213008 | 10 | 277 | 14.5 | 35.4 | 0.00 | 0.00 | 0.00 | 41 | 1011.2 |
| 20260505212506 | 9 | 232 | 20.9 | 35.4 | 0.00 | 0.00 | 0.00 | 39 | 1011.2 |
| 20260505212008 | 9 | 273 | 12.9 | 29.0 | 0.00 | 0.00 | 0.00 | 40 | 1011.2 |
| 20260505211503 | 9 | 309 | 11.3 | 29.0 | 0.00 | 0.00 | 0.00 | 40 | 1011.2 |
| 20260505211003 | 9 | 247 | 11.3 | 29.0 | 0.00 | 0.00 | 0.00 | 42 | 1011.3 |
| 20260505210506 | 9 | 250 | 12.9 | 30.6 | 0.00 | 0.00 | 0.00 | 42 | 1011.3 |
| 20260505210004 | 9 | 249 | 16.1 | 33.8 | 0.00 | 0.00 | 0.00 | 42 | 1011.3 |
| 20260505205506 | 9 | 282 | 14.5 | 33.8 | 0.00 | 0.00 | 0.00 | 40 | 1011.4 |
| 20260505205005 | 9 | 259 | 14.5 | 27.4 | 0.00 | 0.00 | 0.00 | 40 | 1011.3 |
| 20260505204509 | 9 | 309 | 14.5 | 29.0 | 0.00 | 0.00 | 0.00 | 39 | 1011.2 |
| 20260505204003 | 9 | 252 | 14.5 | 29.0 | 0.00 | 0.00 | 0.00 | 41 | 1011.3 |
| 20260505203502 | 10 | 229 | 16.1 | 29.0 | 0.00 | 0.00 | 0.00 | 39 | 1011.3 |
| 20260505203016 | 10 | 254 | 17.7 | 30.6 | 0.00 | 0.00 | 0.00 | 40 | 1011.4 |
| 20260505202507 | 9 | 279 | 17.7 | 30.6 | 0.00 | 0.00 | 0.00 | 42 | 1011.4 |
| 20260505202004 | 9 | 275 | 12.9 | 32.2 | 0.00 | 0.00 | 0.00 | 45 | 1011.4 |
| 20260505201511 | 8 | 303 | 17.7 | 32.2 | 0.00 | 0.00 | 0.00 | 44 | 1011.5 |
| 20260505201006 | 8 | 237 | 14.5 | 29.0 | 0.00 | 0.00 | 0.00 | 42 | 1011.6 |
| 20260505200510 | 8 | 232 | 17.7 | 29.0 | 0.00 | 0.00 | 0.00 | 42 | 1011.6 |
| 20260505200014 | 8 | 236 | 16.1 | 24.1 | 0.00 | 0.00 | 0.00 | 43 | 1011.5 |
| 20260505195503 | 8 | 292 | 17.7 | 30.6 | 0.00 | 0.00 | 0.00 | 43 | 1011.5 |
| 20260505195008 | 8 | 261 | 12.9 | 38.6 | 0.00 | 0.00 | 0.00 | 42 | 1011.5 |
| 20260505194508 | 9 | 240 | 24.1 | 38.6 | 0.00 | 0.00 | 0.00 | 41 | 1011.6 |
| 20260505194004 | 10 | 241 | 11.3 | 27.4 | 0.00 | 0.00 | 0.00 | 41 | 1011.5 |
| 20260505193507 | 10 | 244 | 17.7 | 27.4 | 0.00 | 0.00 | 0.00 | 42 | 1011.4 |
| 20260505193019 | 10 | 284 | 14.5 | 25.7 | 0.00 | 0.00 | 0.00 | 44 | 1011.5 |
| 20260505192507 | 8 | 269 | 12.9 | 25.7 | 0.00 | 0.00 | 0.00 | 45 | 1011.6 |
| 20260505192007 | 8 | 232 | 12.9 | 27.4 | 0.00 | 0.00 | 0.00 | 43 | 1011.6 |
| 20260505191528 | 8 | 266 | 16.1 | 32.2 | 0.00 | 0.00 | 0.00 | 42 | 1011.4 |
| 20260505191003 | 9 | 249 | 19.3 | 32.2 | 0.00 | 0.00 | 0.00 | 42 | 1011.5 |
| 20260505190504 | 9 | 268 | 17.7 | 27.4 | 0.00 | 0.00 | 0.00 | 42 | 1011.4 |
| 20260505190008 | 9 | 273 | 8.0 | 27.4 | 0.00 | 0.00 | 0.00 | 46 | 1011.6 |
| 20260505185503 | 8 | 221 | 11.3 | 32.2 | 0.00 | 0.00 | 0.00 | 44 | 1011.7 |
| 20260505185004 | 8 | 302 | 16.1 | 32.2 | 0.00 | 0.00 | 0.00 | 43 | 1011.8 |
| 20260505184516 | 8 | 286 | 11.3 | 24.1 | 0.00 | 0.00 | 0.00 | 44 | 1011.7 |
| 20260505184005 | 8 | 298 | 12.9 | 25.7 | 0.00 | 0.00 | 0.00 | 43 | 1011.7 |
| 20260505183506 | 8 | 279 | 14.5 | 25.7 | 0.00 | 0.00 | 0.00 | 41 | 1011.6 |
| 20260505183013 | 9 | 252 | 16.1 | 35.4 | 0.00 | 0.00 | 0.00 | 42 | 1011.6 |
| 20260505182506 | 9 | 294 | 22.5 | 35.4 | 0.00 | 0.00 | 0.00 | 41 | 1011.7 |
| 20260505182012 | 9 | 272 | 19.3 | 30.6 | 0.00 | 0.00 | 0.00 | 40 | 1011.5 |
| 20260505181512 | 9 | 266 | 9.7 | 35.4 | 0.00 | 0.00 | 0.00 | 39 | 1011.6 |
| 20260505181005 | 9 | 307 | 20.9 | 35.4 | 0.00 | 0.00 | 0.00 | 39 | 1011.5 |
| 20260505180502 | 10 | 254 | 19.3 | 30.6 | 0.00 | 0.00 | 0.00 | 42 | 1011.5 |
| 20260505180012 | 9 | 277 | 14.5 | 33.8 | 0.00 | 0.00 | 0.00 | 43 | 1011.6 |
| 20260505175504 | 8 | 292 | 17.7 | 33.8 | 0.00 | 0.00 | 0.00 | 41 | 1011.6 |
| 20260505175004 | 8 | 294 | 16.1 | 32.2 | 0.00 | 0.00 | 0.00 | 42 | 1011.6 |
| 20260505174516 | 8 | 248 | 9.7 | 38.6 | 0.00 | 0.00 | 0.00 | 40 | 1011.5 |
| 20260505174005 | 9 | 279 | 17.7 | 38.6 | 0.00 | 0.00 | 0.00 | 40 | 1011.5 |
| 20260505173510 | 9 | 263 | 12.9 | 29.0 | 0.00 | 0.00 | 0.00 | 41 | 1011.6 |
| 20260505173023 | 8 | 250 | 11.3 | 20.9 | 0.00 | 0.00 | 0.00 | 42 | 1011.6 |
| 20260505172509 | 8 | 275 | 11.3 | 22.5 | 0.00 | 0.00 | 0.00 | 42 | 1011.7 |
| 20260505172005 | 8 | 254 | 12.9 | 29.0 | 0.00 | 0.00 | 0.00 | 41 | 1011.7 |
| 20260505171519 | 8 | 255 | 16.1 | 33.8 | 0.00 | 0.00 | 0.00 | 40 | 1011.7 |
| 20260505171007 | 8 | 307 | 19.3 | 33.8 | 0.00 | 0.00 | 0.00 | 40 | 1011.7 |
| 20260505170505 | 9 | 261 | 19.3 | 29.0 | 0.00 | 0.00 | 0.00 | 41 | 1011.6 |
| 20260505170011 | 8 | 263 | 19.3 | 29.0 | 0.00 | 0.00 | 0.00 | 43 | 1011.6 |